Regional Weather Roundup
Issued by NWS Grand Forks, ND

Home | Current Version | Previous Version | Text Only | Print | Product List | Glossary Off
Versions: 1 2 3 4 5 6 7 8 9 10 11 12 13 14 15 16 17 18 19 20 21 22 23 24 25 26 27 28 29 30 31 32 33 34 35 36 37 38 39 40 41 42 43 44 45 46 47 48 49 50

000
ASUS43 KFGF 010710
RWRFGF
PRAIRIE TO PINES  WEATHER ROUNDUP
NATIONAL WEATHER SERVICE EASTERN NORTH DAKOTA/GRAND FORKS ND
100 AM CST SUN FEB 01 2015

 **SATELLITE DATA USED TO AUGMENT SKY COVER AT AUTOMATED STATIONS**
 *****  WEATHER ACROSS EASTERN NORTH DAKOTA  *****

CITY           SKY/WX    TMP DP  RH WIND       PRES   REMARKS
GRAND FORKS    MOCLDY    -9 -17  68 N15       30.55S WCI -31
GRAND FRKS AFB MOCLDY   -10 -19  64 N16       30.55S WCI -33
GRAND FRKS NWS   N/A     -9 N/A N/A VRB13       N/A  WCI -30
DEVILS LAKE    MOCLDY    -9 -20  59 NE12G17   30.49R WCI -29
FARGO          CLOUDY    -2 -11  65 N20       30.44S WCI -24
WAHPETON ARPT  PTSUNNY    3  -6  66 N18G28    30.37R WCI -17
$$

 ***** WEATHER ACROSS CENTRAL AND WESTERN NORTH DAKOTA  *****

CITY           SKY/WX    TMP DP  RH WIND       PRES   REMARKS
BISMARCK       LGT SNOW  -4 -11  72 N12       30.45R WCI -22
MINOT          MOCLDY    -8 -18  61 N12       30.50R WCI -27
JAMESTOWN      CLOUDY    -5 -14  65 N20       30.41S WCI -28
MINOT AFB      PTCLDY    -8 -17  67 N12       30.51R WCI -28
GARRISON         N/A     -6 -12  75 N10       30.45R WCI -24
WILLISTON      CLOUDY    -4 -12  68 N8        30.49R WCI -19
DICKINSON      LGT SNOW  -2  -8  76 NE8       30.34S WCI -17
HETTINGER      LGT SNOW  -2  -7  79 N16G22    30.31R WCI -23
$$

 *****  OTHER AIRPORT OBSERVATIONS IN OUR AREA  *****

CITY           SKY/WX    TMP DP  RH WIND       PRES   REMARKS
WALHALLA         N/A    -11 -18  70 N12       30.61S WCI -31
GRAFTON AIRPOR NOT AVBL
VALLEY CITY AR CLOUDY    -4 -11  71 N20       30.42S WCI -27
CANDO          CLOUDY   N/A N/A N/A NE10      30.51F
CAVALIER APRT  FAIR      -9 -18  64 N13G20    30.60S WCI -30
GWINNER        CLOUDY     1  -9  60 N21       30.39S WCI -20
SHEYENNE NWR     N/A     -3 -13  61 N14       29.95S WCI -23
ROLLA          CLOUDY   -13 -20  70 N14       30.49R WCI -35
 ***** THE ABOVE OBSERVATIONS ARE NON NWS ARE NOT QUALITY
       CONTROLLED AND MAY MIS-REPORT RAIN FOR SNOW...
$$

  *****  WEATHER ACROSS NORTHERN MINNESOTA  *****

CITY           SKY/WX    TMP DP  RH WIND       PRES   REMARKS
FLAG ISLAND    MOCLDY   -15 -18  84 N9        30.51S WCI -33
WARROAD        MOCLDY   -15 -20  76 NW3       30.51S
ROSEAU         PTCLDY   -13 -18  77 N8        30.53R WCI -30
HALLOCK        PTCLDY   -11 -22  58 N14       30.58R WCI -33
THF RVR FALLS  PTCLDY    -8 -15  71 N10       30.48S WCI -26
BAUDETTE       MOCLDY   -13 -19  75 N7        30.47S WCI -29
WASKISH        PTCLDY   -11 -17  77 CALM      30.45S
CROOKSTON      PTCLDY    -8 -15  71 N14G20    30.53R WCI -28
STEPHEN NDAWN    N/A    -11 -18  70 VRB12       N/A  WCI -31
GREENBUSH NDAW   N/A    -15 -18  84 VRB10       N/A  WCI -35
$$
  *****  WEATHER ACROSS CENTRAL AND WEST MINNESOTA  *****

CITY           SKY/WX    TMP DP  RH WIND       PRES   REMARKS
FOSSTON        PTCLDY    -8 -13  77 NE13      30.42S WCI -28
BEMIDJI        PTCLDY    -7 -13  73 NE8       30.39S WCI -23
PARK RAPIDS    MOCLDY     0  -9  65 NE10G17   30.33S WCI -16
ELBOW LAKE     PTSUNNY    8  -1  65 NE12G17   30.29R WCI  -7
WADENA         PTCLDY     3  -6  66 NE12G17   30.30F WCI -13
DETROIT LAKES  FAIR       1  -6  71 NE13      30.36R WCI -16
MOORHEAD       PTCLDY     1  -8  66 N18G24    30.43R WCI -19
FERGUS FALLS   MOCLDY     5  -6  61 NE12G20   30.36S WCI -11
MORRIS MN      CLOUDY    12   1  62 N16       30.27R WCI  -4
STAPLES        MOCLDY     5  -6  61 N9        30.31S WCI  -9
$$
  *****  WEATHER ELSEWHERE ACROSS MINNESOTA  *****

CITY           SKY/WX    TMP DP  RH WIND       PRES   REMARKS
DULUTH         MOCLDY     0 -10  63 N10       30.30S WCI -16
INTRNTL FALLS  PTCLDY   -13 -19  75 N5        30.46R WCI -25
ELY            CLEAR    -11 -17  77 CALM      30.38S
CLOQUET        MOCLDY     1  -9  60 N3        30.32R
WHEATON        CLOUDY     9   0  66 N14G20    30.35R WCI  -8
BRAINERD       MOCLDY     5  -5  63 NE14      30.32S WCI -12
HIBBING        MOCLDY    -4 -14  62 NE6       30.36F WCI -16
ALEXANDRIA     CLOUDY    11  -1  58 NE16      30.25S WCI  -6
SAINT CLOUD    CLOUDY    15   2  56 NE13      30.25S WCI   1
MINNEAPOLIS    CLOUDY    19   8  62 NE15      30.20S WCI   5
$$

  *****  WEATHER ACROSS SOUTH DAKOTA  *****

CITY           SKY/WX    TMP DP  RH WIND       PRES   REMARKS
SIOUX FALLS    LGT SNOW  21  18  88 NE22G31   30.05S VSB 1   WCI   5
BROOKINGS      NOT AVBL
WATERTOWN      LGT SNOW   7   1  76 N24G30    30.18S WCI -14
HURON          LGT SNOW   8   2  76 N21G31    30.23S WCI -12
SISSETON         N/A      3  -5  69 N21G29    30.33R WCI -18
ABERDEEN       LGT SNOW   2  -5  72 N20G28    30.35R WCI -19
MITCHELL       LGT SNOW  14  11  87 N25       30.16S VSB 1   WCI  -5
PIERRE         FLURRIES   9  -1  64 N20       30.26R WCI -10
MOBRIDGE       LGT SNOW   3  -3  76 N14       30.31R WCI -15
RAPID CITY     FLURRIES  10   7  87 N13       30.18R WCI  -5
$$

  *****  SOME WEATHER IN NEARBY STATES *****

CITY           SKY/WX    TMP DP  RH WIND       PRES   REMARKS
GLASGOW MT     FLURRIES   3  -2  79 NE6       30.46S WCI  -8
GREAT FALLS MT MOCLDY    -1  -4  87 CALM      30.35R
CHEYENNE WY    LGT SNOW  22  16  78 N18G35    29.97R WCI   7
SCOTTSBLUFF NE CLOUDY    25  21  85 N10       30.04R WCI  15
OMAHA NE       LGT SNOW  33  32  96 E5        29.84F VSB 3/4
DES MOINES IA  LGT SNOW  33  31  92 E8        29.90F VSB 3/4
DAVENPORT IA   LGT SNOW  32  30  92 E10       30.01F VSB 3/4 WCI  24
CHICAGO IL     LGT SNOW  30  29  96 NE8       30.12F VSB 1   WCI  22
EAU CLAIRE WI  CLOUDY    18   8  65 NE15      30.20F WCI   4
LA CROSSE WI   LGT SNOW  27  23  85 VRB6      30.14S FOG     WCI  20
$$

  *****  SOME NATIONAL WEATHER *****

CITY           SKY/WX    TMP DP  RH WIND       PRES   REMARKS
LA GUARDIA NY  MOCLDY    22   7  52 W12       30.20S WCI  10
RALEIGH NC     CLOUDY    36  16  44 CALM      30.27S
ATLANTA GA     MOCLDY    45  21  38 SE3       30.24F
NEW ORLEANS LA CLOUDY    60  51  72 SE9       30.09F
OKLAHOMA CITY  CLOUDY    45  43  93 S8        29.83F
ALBUQUERQUE NM MOCLDY    39  32  76 N14G21    29.98S
SALT LAKE CITY CLEAR     31  28  89 E6        30.16F
LOS ANGELES CA CLEAR     59  55  87 W3        29.99R
BOISE ID       PTCLDY    34  26  72 CALM      30.19R
SEATTLE WA     CLOUDY    43  40  89 NW5       30.11S
$$

*** WEATHER ACROSS MANITOBA...SASKATCHEWAN AND ONTARIO ***
                ***ONTARIO***

CITY           SKY/WX    TMP DP  RH WIND       PRES   REMARKS
GERALDTON      CLEAR    -29 -33  83 SW3       30.40R
THUNDER BAY    CLEAR    -13 -20  70 NW5       30.50S WCI -25
SIOUX LOOKOUT  CLEAR    -29 -35  75 CALM      30.45S
TORONTO        FLURRIES  27  23  86 W8        30.15R WCI  18
BIG TROUT LK   CLEAR    -24 -31  69 W10       30.37F WCI -46
PICKLE LAKE    NOT AVBL
DRYDEN         CLEAR    -18 -22  83 NW3       30.45R
KENORA         CLEAR    -18 -22  83 N8        30.47S WCI -37
$$
                *** MANITOBA***

CITY           SKY/WX    TMP DP  RH WIND       PRES   REMARKS
BRANDON        MOCLDY   -15 -22  70 NW5       30.58S WCI -27
DAUPHIN        CLEAR    -18 -26  69 W7        30.62F WCI -35
ISLAND LAKE    CLEAR    -24 -29  76 SW8       30.47F WCI -43
PILOT MOUND      N/A    -17 -24  70 N7          N/A  WCI -33
THE PAS        CLEAR    -20 -27  69 W7        30.58F WCI -37
THOMPSON       CLEAR    -20 -29  63 W9        30.45S WCI -40
WINNIPEG       MOCLDY   -17 -24  70 NW7       30.64R WCI -33
LYNN LAKE      CLEAR    -24 -31  69 W6        30.39F WCI -40
CHURCHILL      CLEAR    -22 -29  69 NW15      30.31S WCI -48
GILLAM         CLEAR    -22 -29  69 W10       30.38S WCI -44
$$
                ***SASKATCHEWAN***

CITY           SKY/WX    TMP DP  RH WIND       PRES   REMARKS
ESTEVAN        CLOUDY    -8 -17  65 E3        30.51S
KINDERSLEY     PTCLDY   -13 -18  77 S7        30.44F WCI -29
LLOYDMINSTER   CLOUDY     0  -6  78 SW10      30.39F WCI -17
PRINCE ALBERT  CLEAR    -24 -29  76 CALM      30.54F
REGINA         MOCLDY    -8 -13  77 N5        30.52S WCI -19
YORKTON        CLEAR    -18 -26  69 W5        30.54F WCI -31
N. BATTLEFORD  CLEAR     -6  -9  84 S3        30.50F
LA RONGE       CLEAR    -31 -36  75 SW2       30.49F
SASKATOON      PTCLDY    -9 -15  77 SW7       30.55F WCI -24
SWIFT CURRENT  CLEAR     -9 -13  84 S5        30.41S WCI -21
$$
NOTE: THESE ARE AUTOMATED STATIONS WITH LIMITED QUALITY CONTROL
      "FAIR" INDICATES FEW OR NO CLOUDS BELOW 12,000 FEET WITH NO
      SIGNIFICANT WEATHER AND/OR OBSTRUCTIONS TO VISIBILITY.
      SKY/WX - SKY CONDITION AND SIGNIFICANT WEATHER.
      TMP - AIR TEMPERATURE.    DP   - DEWPOINT TEMPERATURE.
      RH  - RELATIVE HUMIDITY.  PRES - PRESSURE.
      HX  - HEAT INDEX.         WCI  - WIND CHILL INDEX.
$


USA.gov is the U.S. government's official web portal to all federal, state and local government web resources and services.